Charlottetown, Prince Edward Island

4:12 AM AST on February 20, 2018 (GMT -0400)
Charlottetown

Weather History for CYYG - August, 2014

Change the Weather History Date:

Thursday, August 21, 2014

  Actual Average Record
Temperature  
Mean Temperature 62 °F -  
Max Temperature 68 °F 66 °F 84 °F (2015)
Min Temperature 56 °F 50 °F 44 °F (1997)
Degree Days  
Heating Degree Days 3    
Growing Degree Days 12 (Base 50)    
Moisture  
Dew Point 58 °F    
Average Humidity 86    
Maximum Humidity 94    
Minimum Humidity 73    
Precipitation  
Precipitation 0.00 in 0.12 in - ()
Sea Level Pressure  
Sea Level Pressure 30.12 in    
Wind  
Wind Speed 5 mph ()    
Max Wind Speed 12 mph    
Max Gust Speed 20 mph    
Visibility 15.0 miles    
Events      
Averages and records for this station are not official NWS values.
T = Trace of Precipitation, MM = Missing Value Source: Averaged Metar Reports

Daily Weather History Graph

Daily Weather History Graph

Search for Another Location

Airport or City:

Trip Planner

Search our weather history database for the weather conditions in past years. The results will help you decide how hot, cold, wet, or windy it might be!

Date:

Astronomy

Aug. 21, 2014 Rise Set
Actual Time 6:18 AM ADT 8:11 PM ADT
Civil Twilight 5:46 AM ADT 8:43 PM ADT
Nautical Twilight 5:07 AM ADT 9:22 PM ADT
Astronomical Twilight 4:23 AM ADT 10:05 PM ADT
Moon 2:39 AM ADT (8/21) 5:42 PM ADT (8/21)
Length of Visible Light 14h 56m
Length of Day
13h 52m
Waning Crescent, 14% of the Moon is Illuminated
Aug 21
Waning Crescent
Aug 25
New
Sep 2
First Quarter
Sep 8
Full
Sep 15
Last Quarter

Hourly Weather History & Observations

Time (ADT) Temp. Dew Point Humidity Pressure Visibility Wind Dir Wind Speed Gust Speed Precip Events Conditions
12:00 AM 59.0 °F 55.4 °F 88% 30.07 in 15.0 mi West 4.6 mph - N/A   Mostly Cloudy
1:00 AM 57.2 °F 55.4 °F 94% 30.08 in 15.0 mi West 4.6 mph - N/A   Scattered Clouds
3:00 AM 57 °F 55 °F 91% 30.07 in 15 mi WNW 4.6 mph - -   Scattered Clouds
3:00 AM 57.2 °F 55.4 °F 94% 30.07 in 15.0 mi WNW 4.6 mph - N/A   Partly Cloudy
4:00 AM 59.0 °F 55.4 °F 88% 30.07 in 15.0 mi NW 4.6 mph - N/A   Scattered Clouds
5:00 AM 59.0 °F 55.4 °F 88% 30.07 in 15.0 mi NW 3.5 mph - N/A   Mostly Cloudy
6:00 AM 59.0 °F 55.4 °F 88% 30.08 in 15.0 mi NW 4.6 mph - N/A   Mostly Cloudy
7:00 AM 60.8 °F 57.2 °F 88% 30.10 in 15.0 mi NW 4.6 mph - N/A   Mostly Cloudy
8:00 AM 62.6 °F 60.8 °F 94% 30.11 in 15.0 mi NNW 5.8 mph - N/A   Mostly Cloudy
9:00 AM 64 °F 61 °F 86% 30.12 in 15 mi NNW 6.9 mph - -   Mostly Cloudy
9:00 AM 64.4 °F 60.8 °F 88% 30.12 in 15.0 mi NNW 6.9 mph - N/A   Mostly Cloudy
10:00 AM 66.2 °F 60.8 °F 83% 30.13 in 15.0 mi North 6.9 mph - N/A   Mostly Cloudy
11:00 AM 68.0 °F 60.8 °F 78% 30.14 in 15.0 mi NNW 6.9 mph - N/A   Mostly Cloudy
12:00 PM 68.0 °F 60.8 °F 78% 30.14 in 15.0 mi NNW 6.9 mph - N/A   Mostly Cloudy
1:00 PM 68.0 °F 59.0 °F 73% 30.13 in 15.0 mi North 8.1 mph - N/A   Mostly Cloudy
3:00 PM 66 °F 60 °F 74% 30.13 in 15 mi North 11.5 mph - -   Mostly Cloudy
3:00 PM 66.2 °F 59.0 °F 78% 30.13 in 15.0 mi North 10.4 mph - N/A   Mostly Cloudy
4:00 PM 66.2 °F 59.0 °F 78% 30.13 in 15.0 mi North 10.4 mph 17.3 mph N/A   Mostly Cloudy
5:00 PM 66.2 °F 59.0 °F 78% 30.13 in 15.0 mi NNW 9.2 mph - N/A   Mostly Cloudy
6:00 PM 66.2 °F 59.0 °F 78% 30.14 in 15.0 mi North 10.4 mph 17.3 mph N/A   Mostly Cloudy
7:00 PM 62.6 °F 59.0 °F 88% 30.14 in 15.0 mi North 11.5 mph 19.6 mph N/A   Overcast
8:00 PM 62.6 °F 57.2 °F 82% 30.14 in 15.0 mi NNE 9.2 mph - N/A   Mostly Cloudy
9:00 PM 60 °F 57 °F 87% 30.16 in 15 mi North 4.6 mph - -   Partly Cloudy
9:00 PM 59.0 °F 57.2 °F 94% 30.15 in 15.0 mi North 4.6 mph - N/A   Mostly Cloudy
10:00 PM 59.0 °F 57.2 °F 94% 30.16 in 15.0 mi North 4.6 mph - N/A   Scattered Clouds
11:00 PM 59.0 °F 57.2 °F 94% 30.15 in 15.0 mi North 4.6 mph - N/A   Scattered Clouds